�N����,����,�~����,�C��,���x,�C��,����,���ϕ���,�ő�u�ԕ���,�ő厞����,���˗�,�I�_���x,�n�����x,�ő啗���N��,DTYPE
"23/04/07","00:10",0.0,16.3,94.8,1009.0,304.5,1.3,1.8,315.2,0.00,15.5,15.2,"00:03:28",1
"23/04/07","00:20",0.0,16.2,94.9,1008.8,300.5,0.5,1.0,311.2,0.00,15.4,15.2,"00:10:32",1
"23/04/07","00:30",0.0,16.4,95.0,1009.0,326.0,1.0,1.9,259.9,0.00,15.6,15.1,"00:29:28",1
"23/04/07","00:40",0.0,16.3,95.1,1008.6,308.0,1.8,2.5,318.8,0.00,15.6,14.9,"00:35:44",1
"23/04/07","00:50",0.0,16.2,95.2,1008.1,306.2,0.7,1.7,327.1,0.00,15.5,14.9,"00:40:08",1
"23/04/07","01:00",0.0,16.2,95.3,1008.3,275.2,1.0,1.4,263.2,0.00,15.5,15.2,"00:57:36",1
"23/04/07","01:10",0.0,16.2,95.4,1008.1,272.6,0.8,1.2,260.5,0.00,15.5,15.0,"01:06:56",1
"23/04/07","01:20",0.0,16.3,95.5,1008.1,327.4,1.7,2.6,341.7,0.00,15.6,14.8,"01:13:20",1
"23/04/07","01:30",0.0,16.2,95.6,1007.8,305.2,1.6,2.0,317.3,0.00,15.5,15.0,"01:20:24",1
"23/04/07","01:40",0.2,16.2,95.7,1008.1,314.1,1.7,2.5,326.6,0.00,15.6,15.1,"01:32:48",1
"23/04/07","01:50",0.0,16.1,95.8,1007.8,324.1,1.3,1.9,339.9,0.00,15.5,15.2,"01:40:48",1
"23/04/07","02:00",0.0,16.1,95.8,1007.6,309.5,1.5,1.9,319.9,0.00,15.5,15.1,"01:50:40",1
"23/04/07","02:10",0.0,16.0,95.9,1007.6,290.2,1.2,1.9,269.0,0.00,15.4,15.1,"02:01:28",1
"23/04/07","02:20",0.0,16.1,96.0,1007.4,311.6,1.7,2.7,315.2,0.00,15.5,14.8,"02:16:16",1
"23/04/07","02:30",0.2,16.1,96.0,1007.1,287.7,1.1,1.8,330.8,0.00,15.5,15.0,"02:20:32",1
"23/04/07","02:40",0.0,16.0,96.1,1007.1,306.8,0.8,1.2,309.3,0.00,15.4,15.0,"02:33:48",1
"23/04/07","02:50",0.0,15.9,96.2,1006.9,302.2,1.2,1.9,326.6,0.00,15.3,15.0,"02:43:38",1
"23/04/07","03:00",0.0,16.0,96.3,1006.9,322.3,0.8,1.3,260.2,0.00,15.5,14.9,"02:57:48",1
"23/04/07","03:10",0.0,15.9,96.3,1006.9,309.0,1.1,1.4,262.4,0.00,15.4,14.9,"03:04:24",1
"23/04/07","03:20",0.2,16.0,96.4,1006.7,4.8,0.6,1.1,303.1,0.00,15.5,15.2,"03:10:10",1
"23/04/07","03:30",0.0,16.0,96.5,1006.4,341.1,0.8,1.6,265.3,0.00,15.5,14.9,"03:21:44",1
"23/04/07","03:40",0.0,15.9,96.5,1006.4,319.8,1.3,1.9,339.2,0.00,15.4,15.0,"03:38:52",1
"23/04/07","03:50",0.0,15.9,96.6,1006.0,317.9,1.5,1.8,338.0,0.00,15.4,15.1,"03:40:40",1
"23/04/07","04:00",0.0,15.9,96.6,1005.7,291.8,1.0,1.0,288.2,0.00,15.4,15.0,"03:56:14",1
"23/04/07","04:10",0.0,15.8,96.7,1006.0,298.1,1.0,1.2,311.6,0.00,15.3,15.2,"04:01:16",1
"23/04/07","04:20",0.2,15.9,96.7,1005.7,318.8,1.3,1.7,318.6,0.00,15.4,15.0,"04:18:40",1
"23/04/07","04:30",0.0,15.8,96.8,1005.7,338.8,1.1,1.6,338.1,0.00,15.3,15.0,"04:21:00",1
"23/04/07","04:40",0.0,15.8,96.9,1005.5,325.4,1.1,1.4,326.0,0.00,15.3,14.9,"04:34:42",1
"23/04/07","04:50",0.0,15.8,96.9,1005.5,276.5,1.2,1.8,261.2,0.00,15.3,15.0,"04:42:48",1
"23/04/07","05:00",0.0,15.7,97.0,1005.5,292.5,0.6,1.2,258.7,0.00,15.3,15.0,"04:52:00",1
"23/04/07","05:10",0.0,15.8,97.0,1005.0,326.7,0.6,1.6,317.8,0.00,15.4,15.0,"05:09:14",1
"23/04/07","05:20",0.0,15.7,97.1,1005.0,292.1,1.2,1.8,302.8,0.00,15.3,15.0,"05:19:40",1
"23/04/07","05:30",0.0,15.7,97.1,1005.0,321.5,1.1,1.9,312.7,0.00,15.3,15.0,"05:20:50",1
"23/04/07","05:40",0.0,15.8,97.2,1005.2,300.9,0.6,1.7,293.0,0.00,15.4,14.8,"05:39:28",1
"23/04/07","05:50",0.2,15.7,97.2,1005.0,304.6,1.6,2.0,319.8,0.00,15.3,15.0,"05:46:28",1
"23/04/07","06:00",0.0,15.7,97.3,1005.5,317.8,1.1,1.6,311.8,0.00,15.3,15.0,"05:59:44",1
"23/04/07","06:10",0.2,15.7,97.3,1005.5,309.7,1.5,1.9,319.9,0.00,15.3,14.8,"06:03:44",1
"23/04/07","06:20",0.2,15.7,97.4,1005.5,321.6,1.1,1.8,320.7,0.00,15.3,14.9,"06:19:36",1
"23/04/07","06:30",0.0,15.6,97.4,1005.7,332.3,1.1,1.6,310.8,0.00,15.2,15.0,"06:20:24",1
"23/04/07","06:40",0.4,15.7,97.4,1005.7,338.2,1.1,1.6,333.2,0.00,15.3,14.8,"06:37:24",1
"23/04/07","06:50",0.4,15.6,97.5,1005.7,305.5,1.2,1.7,325.2,0.00,15.2,15.0,"06:40:20",1
"23/04/07","07:00",0.6,15.7,97.5,1006.0,319.0,1.1,1.9,313.9,0.00,15.3,14.8,"06:52:52",1
"23/04/07","07:10",0.8,15.8,97.5,1006.4,309.8,1.2,1.4,310.6,0.00,15.4,14.8,"07:01:42",1
"23/04/07","07:20",0.8,15.8,97.6,1006.4,309.1,0.5,1.0,320.6,0.00,15.5,14.9,"07:16:26",1
"23/04/07","07:30",0.6,16.0,97.6,1006.2,327.8,0.5,1.6,312.8,0.00,15.7,15.0,"07:29:00",1
"23/04/07","07:40",0.4,16.1,97.6,1006.0,328.9,1.0,1.7,348.6,0.00,15.8,15.1,"07:39:04",1
"23/04/07","07:50",0.4,16.2,97.6,1006.2,279.4,1.3,2.1,247.4,0.00,15.9,14.9,"07:45:40",1
"23/04/07","08:00",0.2,16.2,97.7,1006.0,256.0,1.0,1.9,257.6,0.00,15.9,15.0,"07:50:50",1
"23/04/07","08:10",0.4,16.2,97.7,1005.7,274.0,0.8,1.6,261.2,0.00,15.9,14.8,"08:08:26",1
"23/04/07","08:20",0.0,16.3,97.7,1005.5,267.9,1.3,2.0,250.8,0.00,16.0,15.0,"08:15:04",1
"23/04/07","08:30",0.2,16.3,97.8,1005.2,298.4,1.0,2.1,248.6,0.00,16.0,15.0,"08:21:28",1
"23/04/07","08:40",0.2,16.3,97.8,1005.2,298.6,0.6,1.4,248.1,0.00,16.0,14.8,"08:31:48",1
"23/04/07","08:50",0.2,16.4,97.8,1005.5,284.2,1.2,1.8,263.9,0.00,16.1,14.8,"08:42:40",1
"23/04/07","09:00",0.2,16.6,97.9,1005.5,292.2,1.0,1.8,300.3,0.05,16.3,15.1,"08:59:56",1
"23/04/07","09:10",0.2,16.7,97.9,1005.5,272.6,1.3,2.0,261.2,0.05,16.4,14.8,"09:09:36",1
"23/04/07","09:20",0.2,16.7,97.9,1005.5,272.8,0.8,1.3,261.7,0.03,16.4,14.7,"09:10:08",1
"23/04/07","09:30",0.4,16.8,97.9,1005.5,284.8,0.6,1.1,267.1,0.04,16.5,14.9,"09:21:10",1
"23/04/07","09:40",0.2,16.8,97.8,1006.0,310.2,1.0,1.3,318.6,0.04,16.5,15.0,"09:31:04",1
"23/04/07","09:50",0.6,16.8,97.9,1006.0,285.5,0.7,1.1,276.6,0.02,16.5,15.0,"09:47:38",1
"23/04/07","10:00",0.8,16.9,97.9,1005.7,195.6,0.2,0.6,293.5,0.02,16.6,15.1,"09:50:08",1
"23/04/07","10:10",0.8,16.9,97.9,1005.7,318.0,0.6,1.3,327.6,0.01,16.6,14.9,"10:02:56",1
"23/04/07","10:20",0.8,16.8,97.9,1006.0,269.1,1.0,1.7,251.5,0.01,16.5,15.0,"10:19:26",1
"23/04/07","10:30",0.8,16.9,98.0,1005.7,281.1,1.0,1.7,261.8,0.01,16.6,14.9,"10:25:22",1
"23/04/07","10:40",1.0,17.0,97.5,1005.5,157.9,0.3,0.9,124.6,0.03,16.6,15.3,"10:39:30",1
"23/04/07","10:50",0.6,17.0,97.9,1005.7,308.7,1.0,2.4,303.6,0.02,16.7,15.2,"10:48:52",1
"23/04/07","11:00",0.4,17.0,97.9,1005.7,345.8,0.8,1.9,336.5,0.03,16.7,15.2,"10:54:22",1
"23/04/07","11:10",0.2,16.9,98.0,1005.5,142.9,1.6,3.3,118.7,0.02,16.6,15.1,"11:06:38",1
"23/04/07","11:20",0.6,17.1,97.6,1004.8,127.0,1.5,3.2,124.3,0.03,16.8,15.1,"11:13:20",1
"23/04/07","11:30",0.4,17.0,97.9,1004.5,112.9,1.2,2.5,124.7,0.03,16.7,15.1,"11:28:08",1
"23/04/07","11:40",0.6,17.0,98.0,1004.3,144.1,1.2,2.7,119.8,0.06,16.7,15.2,"11:37:44",1
"23/04/07","11:50",0.2,17.1,97.5,1003.8,127.3,1.3,2.8,119.2,0.05,16.7,15.1,"11:45:20",1
"23/04/07","12:00",0.4,17.1,98.0,1003.8,35.3,0.6,1.6,114.6,0.02,16.8,15.1,"11:54:32",1
"23/04/07","12:10",0.4,17.1,97.6,1004.1,295.2,1.2,2.1,261.6,0.02,16.8,15.2,"12:02:08",1
"23/04/07","12:20",0.8,17.1,98.0,1003.6,253.2,0.8,2.0,249.5,0.01,16.8,15.3,"12:10:24",1
"23/04/07","12:30",0.2,17.2,97.6,1003.6,143.7,1.1,2.0,134.9,0.04,16.9,15.2,"12:23:04",1
"23/04/07","12:40",0.4,17.1,98.0,1003.6,126.5,1.1,1.9,126.1,0.03,16.8,15.3,"12:36:48",1
"23/04/07","12:50",0.4,17.4,97.5,1003.1,160.7,1.1,1.7,129.9,0.05,17.0,15.3,"12:40:08",1
"23/04/07","13:00",0.4,17.3,98.0,1003.4,141.8,1.5,2.6,142.4,0.07,17.0,15.1,"12:55:14",1
"23/04/07","13:10",0.8,17.3,97.6,1002.9,135.6,1.6,2.6,122.5,0.07,17.0,15.2,"13:02:16",1
"23/04/07","13:20",0.6,17.1,98.0,1002.4,135.3,1.6,3.5,123.7,0.03,16.8,15.1,"13:17:12",1
"23/04/07","13:30",0.8,17.2,97.6,1002.4,143.2,1.8,3.5,122.2,0.03,16.9,15.3,"13:28:00",1
"23/04/07","13:40",0.4,17.2,98.0,1002.6,134.0,1.7,3.1,119.9,0.04,16.9,15.4,"13:39:44",1
"23/04/07","13:50",0.8,17.2,97.5,1002.2,140.8,2.1,3.3,135.7,0.04,16.8,15.4,"13:42:32",1
"23/04/07","14:00",0.8,17.2,98.0,1002.4,165.1,1.0,2.0,195.7,0.02,16.9,15.5,"13:51:36",1
"23/04/07","14:10",1.0,17.2,97.5,1002.2,211.1,0.8,1.7,203.2,0.02,16.8,15.4,"14:04:26",1
"23/04/07","14:20",1.0,17.0,98.0,1001.9,169.5,1.1,2.9,104.9,0.02,16.7,15.4,"14:18:16",1
"23/04/07","14:30",0.6,17.1,97.6,1001.9,146.6,1.3,2.0,200.3,0.03,16.8,15.5,"14:23:20",1
"23/04/07","14:40",1.2,17.1,98.0,1001.7,158.9,0.8,1.7,181.0,0.03,16.8,15.5,"14:35:04",1
"23/04/07","14:50",1.2,17.2,97.6,1001.7,96.6,0.6,1.4,147.5,0.02,16.9,15.6,"14:40:40",1
"23/04/07","15:00",1.0,17.0,98.1,1001.5,18.6,0.3,1.4,339.5,0.02,16.7,15.4,"14:59:38",1
"23/04/07","15:10",1.0,17.2,97.6,1001.0,328.8,0.8,1.3,321.6,0.02,16.9,15.7,"15:03:22",1
"23/04/07","15:20",1.4,17.1,98.1,1000.5,334.9,0.6,1.4,327.1,0.03,16.8,15.7,"15:11:38",1
"23/04/07","15:30",1.6,17.2,97.6,1000.3,334.8,0.2,0.5,128.9,0.01,16.9,15.7,"15:20:26",1
"23/04/07","15:40",1.2,17.0,98.1,1000.5,318.7,1.2,1.8,333.9,0.00,16.7,15.5,"15:38:24",1
"23/04/07","15:50",2.2,17.1,97.6,1000.3,338.0,1.0,1.6,342.6,0.01,16.8,15.7,"15:40:42",1
"23/04/07","16:00",2.2,17.0,98.1,1000.0,338.9,0.8,1.9,341.2,0.01,16.7,15.8,"15:59:16",1
"23/04/07","16:10",2.0,17.1,97.7,1000.0,316.9,1.2,2.1,343.1,0.02,16.8,15.8,"16:05:34",1
"23/04/07","16:20",1.8,17.0,98.1,1000.3,253.6,0.5,2.0,248.4,0.02,16.7,15.8,"16:19:16",1
"23/04/07","16:30",1.8,16.8,97.5,1000.5,296.8,1.7,3.5,339.3,0.00,16.4,15.7,"16:28:54",1
"23/04/07","16:40",0.8,14.5,98.1,1000.5,329.3,3.2,8.1,332.8,0.00,14.2,15.9,"16:37:54",1
"23/04/07","16:50",0.4,14.1,97.7,1001.2,333.5,6.1,10.6,341.1,0.00,13.8,16.0,"16:43:46",1
"23/04/07","17:00",0.2,13.9,98.0,1001.7,321.4,7.0,8.8,311.7,0.00,13.6,15.7,"16:59:22",1
"23/04/07","17:10",0.6,14.0,97.5,1001.7,322.7,4.6,6.4,326.3,0.01,13.7,15.8,"17:01:00",1
"23/04/07","17:20",0.0,14.0,97.9,1001.9,320.4,4.2,6.2,309.8,0.02,13.7,15.8,"17:11:42",1
"23/04/07","17:30",0.0,13.9,97.5,1001.9,316.3,2.8,5.1,313.9,0.00,13.6,15.7,"17:20:42",1
"23/04/07","17:40",0.2,13.9,97.3,1002.6,326.9,3.1,4.3,324.2,0.00,13.5,15.6,"17:32:18",1
"23/04/07","17:50",0.0,13.9,97.2,1002.6,321.4,2.6,4.1,312.2,0.00,13.5,15.7,"17:43:56",1
"23/04/07","18:00",0.0,13.9,97.1,1002.2,305.7,1.5,4.0,339.0,0.00,13.5,15.7,"17:58:48",1
"23/04/07","18:10",0.0,13.9,96.9,1002.4,318.2,1.5,3.3,342.0,0.00,13.5,15.5,"18:00:56",1
"23/04/07","18:20",0.0,14.0,96.8,1002.6,319.1,2.1,3.3,343.7,0.00,13.5,15.5,"18:17:36",1
"23/04/07","18:30",0.0,13.9,96.5,1002.9,331.8,1.6,2.6,337.6,0.00,13.4,15.4,"18:20:48",1
"23/04/07","18:40",0.0,13.9,96.3,1002.6,320.3,2.1,3.4,321.1,0.00,13.4,15.7,"18:31:52",1
"23/04/07","18:50",0.0,14.0,96.1,1003.1,295.9,1.1,2.2,318.3,0.00,13.4,15.7,"18:49:52",1
"23/04/07","19:00",0.0,14.0,95.9,1003.1,282.1,1.3,2.2,309.5,0.00,13.4,15.5,"18:50:08",1
"23/04/07","19:10",0.2,13.9,95.8,1003.1,321.2,1.6,2.6,325.6,0.00,13.3,15.6,"19:08:48",1
"23/04/07","19:20",0.0,13.8,95.7,1003.6,294.9,1.6,2.6,333.9,0.00,13.2,15.6,"19:12:32",1
"23/04/07","19:30",0.0,13.7,95.8,1003.6,314.3,1.8,2.9,339.0,0.00,13.1,15.5,"19:23:12",1
"23/04/07","19:40",0.0,13.6,95.8,1004.1,294.5,2.1,3.6,338.6,0.00,13.0,15.5,"19:39:28",1
"23/04/07","19:50",0.0,13.5,95.8,1004.3,322.4,2.2,3.7,327.7,0.00,12.9,15.5,"19:41:20",1
"23/04/07","20:00",0.0,13.5,95.9,1004.1,313.0,2.3,3.5,329.9,0.00,12.9,15.4,"19:51:20",1
"23/04/07","20:10",0.0,13.4,95.9,1004.3,323.6,2.5,4.1,314.4,0.00,12.8,15.3,"20:07:28",1
"23/04/07","20:20",0.0,13.4,95.9,1004.5,318.8,2.7,4.4,339.1,0.00,12.8,15.2,"20:16:56",1
"23/04/07","20:30",0.0,13.3,95.7,1004.1,329.0,3.0,4.3,347.9,0.00,12.7,15.6,"20:25:04",1
"23/04/07","20:40",0.0,13.2,95.5,1004.5,326.1,3.1,4.8,342.8,0.00,12.5,15.4,"20:31:36",1
"23/04/07","20:50",0.0,13.2,95.4,1004.5,316.1,3.1,6.0,320.1,0.00,12.5,15.3,"20:48:08",1
"23/04/07","21:00",0.0,13.2,95.1,1005.0,310.6,3.0,4.5,311.5,0.00,12.5,15.4,"20:52:56",1
"23/04/07","21:10",0.0,13.2,94.8,1004.8,330.6,3.0,4.9,338.0,0.00,12.4,15.5,"21:00:40",1
"23/04/07","21:20",0.0,13.1,94.2,1004.8,330.2,3.2,4.7,328.4,0.00,12.2,15.5,"21:13:36",1
"23/04/07","21:30",0.0,12.9,93.5,1004.8,326.5,3.2,4.9,348.0,0.00,11.9,15.4,"21:29:44",1
"23/04/07","21:40",0.0,12.7,92.8,1005.0,328.6,3.1,5.1,301.5,0.00,11.6,15.4,"21:39:34",1
"23/04/07","21:50",0.0,12.7,92.6,1005.0,328.6,2.7,4.0,325.4,0.00,11.6,15.2,"21:48:56",1
"23/04/07","22:00",0.0,12.5,92.3,1005.0,326.0,3.1,4.1,325.9,0.00,11.3,15.4,"21:52:54",1
"23/04/07","22:10",0.0,12.3,92.1,1005.2,325.7,3.2,4.8,322.9,0.00,11.1,15.3,"22:03:36",1
"23/04/07","22:20",0.0,12.3,92.1,1005.2,299.8,2.7,4.5,326.7,0.00,11.1,15.1,"22:19:20",1
"23/04/07","22:30",0.0,12.3,91.7,1005.5,326.3,4.4,6.7,329.3,0.00,11.0,15.1,"22:25:28",1
"23/04/07","22:40",0.0,12.1,91.4,1005.2,330.8,4.4,6.7,338.9,0.00,10.8,15.2,"22:36:00",1
"23/04/07","22:50",0.0,12.0,91.3,1004.8,323.4,4.6,7.2,342.8,0.00,10.7,15.2,"22:41:28",1
"23/04/07","23:00",0.0,11.7,91.4,1004.8,318.7,4.5,7.1,324.6,0.00,10.4,14.9,"22:54:40",1
"23/04/07","23:10",0.0,11.7,91.5,1005.0,323.4,3.0,5.0,309.9,0.00,10.4,14.7,"23:01:36",1
"23/04/07","23:20",0.0,11.5,91.6,1005.2,334.4,2.3,3.9,341.5,0.00,10.2,15.0,"23:13:12",1
"23/04/07","23:30",0.0,11.4,91.8,1005.5,347.8,1.0,2.2,333.1,0.00,10.2,15.1,"23:22:08",1
"23/04/07","23:40",0.0,11.2,92.0,1005.2,337.9,1.1,1.6,322.7,0.00,10.0,14.8,"23:33:44",1
"23/04/07","23:50",0.0,10.9,92.3,1005.5,350.1,0.8,1.9,345.7,0.00,9.7,14.8,"23:44:08",1
"23/04/07","24:00",0.0,10.4,92.7,1005.2,290.7,0.7,1.8,327.0,0.00,9.3,14.9,"23:50:16",1
